OZ1IEP-5 Weather Reports


time (UTC)temp
C
wind
direction
speed
KPH
gust
KPH
rain 1hr
cm
rain 24hr
cm
rain mn
cm
humidity
%
barometer
mb
20260506000008 7 1 1.6 11.3 0.00 0.00 0.00 79 1009.3
20260505235006 7 358 1.6 9.7 0.00 0.00 0.00 79 1009.3
20260505234005 7 12 3.2 14.5 0.00 0.00 0.00 80 1009.3
20260505233008 7 2 1.6 11.3 0.00 0.00 0.00 81 1009.4
20260505232005 7 9 0.0 11.3 0.00 0.00 0.00 81 1009.4
20260505231005 7 8 1.6 11.3 0.00 0.00 0.00 82 1009.4
20260505230007 7 22 1.6 16.1 0.00 0.00 0.00 82 1009.4
20260505225006 7 23 1.6 16.1 0.00 0.00 0.00 82 1009.5
20260505224006 7 13 1.6 9.7 0.00 0.00 0.00 81 1009.6
20260505223008 7 8 1.6 4.8 0.00 0.00 0.00 81 1009.7
20260505222005 7 21 1.6 8.0 0.00 0.00 0.00 81 1009.8
20260505221005 7 7 3.2 11.3 0.00 0.00 0.00 81 1009.8
20260505220009 7 9 3.2 11.3 0.00 0.00 0.00 81 1009.8
20260505215006 7 4 4.8 14.5 0.00 0.00 0.00 80 1009.9
20260505214005 7 1 4.8 11.3 0.00 0.00 0.00 80 1009.9
20260505213009 7 9 4.8 14.5 0.00 0.00 0.00 79 1009.8
20260505212005 7 11 3.2 8.0 0.00 0.00 0.00 78 1009.9
20260505211006 7 10 1.6 8.0 0.00 0.00 0.00 77 1009.9
20260505210008 7 23 1.6 3.2 0.00 0.00 0.00 75 1009.9
20260505205005 7 13 0.0 4.8 0.00 0.00 0.00 74 1010.0
20260505204006 7 16 0.0 4.8 0.00 0.00 0.00 73 1009.9
20260505203008 7 10 1.6 8.0 0.00 0.00 0.00 72 1009.9
20260505202005 7 11 3.2 8.0 0.00 0.00 0.00 72 1009.9
20260505201006 7 8 3.2 9.7 0.00 0.00 0.00 70 1009.9
20260505200008 7 3 4.8 11.3 0.00 0.00 0.00 69 1009.8
20260505195005 7 11 1.6 9.7 0.00 0.00 0.00 67 1009.9
20260505194005 7 4 3.2 11.3 0.00 0.00 0.00 64 1009.9
20260505193009 7 357 4.8 11.3 0.00 0.00 0.00 62 1009.9
20260505192005 7 0 4.8 14.5 0.00 0.00 0.00 59 1009.9
20260505191006 8 358 4.8 11.3 0.00 0.00 0.00 57 1009.9
20260505190019 8 2 3.2 4.8 0.00 0.00 0.00 57 1009.8
20260505185005 8 13 0.0 4.8 0.00 0.00 0.00 55 1009.8
20260505184006 9 14 0.0 4.8 0.00 0.00 0.00 56 1009.8
20260505183008 9 3 1.6 8.0 0.00 0.00 0.00 55 1009.8
20260505182005 9 8 1.6 9.7 0.00 0.00 0.00 54 1009.8
20260505181006 10 0 4.8 11.3 0.00 0.00 0.00 52 1009.7
20260505180008 10 359 1.6 9.7 0.00 0.00 0.00 50 1009.6
20260505175005 10 358 1.6 9.7 0.00 0.00 0.00 54 1009.7
20260505174006 10 1 4.8 11.3 0.00 0.00 0.00 57 1009.7
20260505173009 10 359 8.0 12.9 0.00 0.00 0.00 55 1009.7
20260505172005 11 22 1.6 8.0 0.00 0.00 0.00 59 1009.7
20260505171005 11 356 4.8 12.9 0.00 0.00 0.00 57 1009.8
20260505170008 11 4 8.0 14.5 0.00 0.00 0.00 56 1009.7
20260505165006 11 1 8.0 16.1 0.00 0.00 0.00 56 1009.8
20260505164006 11 24 4.8 16.1 0.00 0.00 0.00 59 1009.7
20260505163009 11 0 3.2 16.1 0.00 0.00 0.00 58 1009.7
20260505162006 11 359 4.8 19.3 0.00 0.00 0.00 56 1009.6
20260505161006 11 355 8.0 22.5 0.00 0.00 0.00 62 1009.6
20260505153007 11 356 14.5 27.4 0.00 0.00 0.00 53 1009.8
20260505152006 11 353 19.3 27.4 0.00 0.00 0.00 51 1009.8
20260505151005 11 345 14.5 24.1 0.00 0.00 0.00 52 1009.8
20260505125006 12 349 11.3 22.5 0.00 0.00 0.00 64 1009.9
20260505124006 12 319 12.9 24.1 0.00 0.00 0.00 71 1009.9
20260505123008 11 313 11.3 27.4 0.00 0.00 0.00 74 1009.9
20260505122006 11 300 9.7 25.7 0.00 0.00 0.00 73 1009.9
20260505121005 11 296 12.9 27.4 0.00 0.00 0.00 73 1009.9
20260505120008 11 290 8.0 24.1 0.00 0.00 0.00 72 1009.9
20260505115005 11 297 11.3 25.7 0.00 0.00 0.00 72 1009.9
20260505114006 11 300 3.2 24.1 0.00 0.00 0.00 72 1009.9
20260505113008 11 275 9.7 22.5 0.00 0.00 0.00 73 1009.9
20260505112005 11 284 1.6 16.1 0.00 0.00 0.00 71 1009.9
20260505111005 11 300 0.0 16.1 0.00 0.00 0.00 74 1009.9
20260505102006 11 301 3.2 19.3 0.00 0.00 0.00 77 1010.1
20260505101005 11 305 9.7 20.9 0.00 0.00 0.00 76 1010.2
20260505100009 11 271 4.8 24.1 0.00 0.00 0.00 77 1010.3
20260505095005 11 293 3.2 14.5 0.00 0.00 0.00 79 1010.3
20260505094006 11 305 4.8 19.3 0.00 0.00 0.00 80 1010.3
20260505093007 11 292 1.6 19.3 0.00 0.00 0.00 79 1010.3
20260505092006 11 287 9.7 22.5 0.00 0.00 0.00 80 1010.3
20260505091005 11 301 4.8 22.5 0.00 0.00 0.00 80 1010.3
20260505090007 10 298 8.0 19.3 0.00 0.00 0.00 81 1010.2
20260505085006 10 299 9.7 20.9 0.00 0.00 0.00 80 1010.3
20260505084005 10 300 1.6 19.3 0.00 0.00 0.00 79 1010.2
20260505083007 10 291 8.0 20.9 0.00 0.00 0.00 80 1010.2
20260505082005 10 292 1.6 19.3 0.00 0.00 0.00 82 1010.0
20260505081005 10 292 6.4 24.1 0.00 0.00 0.00 81 1010.0
20260505080008 10 309 8.0 20.9 0.00 0.00 0.00 82 1009.9
20260505075005 9 318 11.3 25.7 0.00 0.00 0.00 81 1009.9
20260505074006 9 306 9.7 22.5 0.00 0.00 0.00 83 1009.9
20260505073007 9 312 12.9 29.0 0.00 0.00 0.00 82 1009.9
20260505072006 9 328 11.3 20.9 0.00 0.00 0.00 84 1009.8
20260505071005 9 334 16.1 27.4 0.00 0.00 0.00 83 1009.8
20260505070009 9 309 8.0 22.5 0.00 0.00 0.00 85 1009.8
20260505065005 8 324 4.8 20.9 0.00 0.00 0.00 85 1009.8
20260505064005 8 316 8.0 19.3 0.00 0.00 0.00 85 1009.8
20260505063008 8 303 1.6 19.3 0.00 0.00 0.00 85 1009.8
20260505062005 8 320 4.8 20.9 0.00 0.00 0.00 85 1009.8
20260505061005 8 334 8.0 19.3 0.00 0.00 0.00 85 1009.8
20260505060007 8 338 14.5 22.5 0.00 0.00 0.00 85 1009.7
20260505055006 8 326 12.9 19.3 0.00 0.00 0.00 86 1009.8
20260505054005 8 311 3.2 20.9 0.00 0.00 0.00 85 1009.8
20260505053007 8 306 4.8 20.9 0.00 0.00 0.00 86 1009.8
20260505052005 8 312 11.3 24.1 0.00 0.00 0.00 86 1009.8
20260505051005 8 299 1.6 14.5 0.00 0.00 0.00 87 1009.8
20260505041005 7 289 0.0 4.8 0.00 0.00 0.00 88 1009.7
20260505040010 7 304 0.0 9.7 0.00 0.00 0.00 88 1009.6
20260505035006 7 295 0.0 4.8 0.00 0.00 0.00 88 1009.6
20260505034006 7 294 0.0 11.3 0.00 0.00 0.00 87 1009.7
20260505033009 7 297 0.0 16.1 0.00 0.00 0.00 87 1009.6
20260505032007 7 296 0.0 11.3 0.00 0.00 0.00 87 1009.6
20260505031006 7 300 0.0 16.1 0.00 0.00 0.00 87 1009.5
20260505030008 7 299 0.0 8.0 0.00 0.00 0.00 87 1009.5
20260505025006 7 318 4.8 12.9 0.00 0.00 0.00 87 1009.5
20260505024006 7 318 4.8 16.1 0.00 0.00 0.00 87 1009.5
20260505023008 7 307 8.0 16.1 0.00 0.00 0.00 87 1009.6
20260505022006 7 331 6.4 16.1 0.00 0.00 0.00 87 1009.7
20260505021005 7 315 4.8 12.9 0.00 0.00 0.00 87 1009.8
20260505020009 7 309 3.2 19.3 0.00 0.00 0.00 87 1009.8
20260505015006 7 307 0.0 16.1 0.00 0.00 0.00 87 1009.9
20260505014005 7 317 6.4 20.9 0.00 0.03 0.00 86 1009.9
20260505013008 7 322 11.3 20.9 0.00 0.03 0.00 87 1009.9
20260505012006 7 319 9.7 19.3 0.00 0.03 0.00 87 1009.9
20260505011006 7 311 4.8 19.3 0.00 0.03 0.00 87 1009.9
20260505010009 7 312 4.8 19.3 0.00 0.03 0.00 86 1009.9
20260505005006 7 314 12.9 20.9 0.00 0.03 0.00 87 1009.9
20260505004006 7 299 3.2 19.3 0.00 0.05 0.00 87 1010.0
20260505003008 7 303 1.6 12.9 0.00 0.05 0.00 88 1010.1
20260505002006 7 313 3.2 19.3 0.00 0.05 0.00 88 1010.2
20260505001006 7 320 6.4 16.1 0.00 0.05 0.00 88 1010.2